Overview Statistics Trail Chart Weather Telemetry Raw packets
 

This is the latest recevied weather packets stored in our database for station/object K9MWD. If no packets are shown the sender has not sent any weather packets the latest 10 day(s).

<< 23 24 25 26 27 28 29 >>
Time Temp. Humidity Pressure Rain* Wind** Luminosity Snow
1788476991 31.67° C 58% 1011.6 hPa 0 mm - 166 W/m² -
1788476687 31.67° C 57% 1011.6 hPa 0 mm - 180 W/m² -
1788476384 31.67° C 57% 1011.7 hPa 0 mm - 196 W/m² -
1788476078 31.67° C 58% 1011.6 hPa 0 mm - 166 W/m² -
1788475775 31.67° C 57% 1011.5 hPa 0 mm - 205 W/m² -
1788475471 31.67° C 57% 1011.6 hPa 0 mm - 136 W/m² -
1788475167 31.67° C 56% 1011.6 hPa 0 mm - 271 W/m² -
1788474866 31.67° C 58% 1011.6 hPa 0 mm - 294 W/m² -
1788474565 31.67° C 58% 1011.4 hPa 0 mm - 267 W/m² -
1788474261 31.67° C 59% 1011.7 hPa 0 mm - 216 W/m² -
1788473960 31.67° C 59% 1011.7 hPa 0 mm - 242 W/m² -
1788473660 31.67° C 60% 1011.5 hPa 0 mm - 250 W/m² -
1788473358 31.67° C 61% 1011.7 hPa 0 mm - 200 W/m² -
1788473052 32.22° C 60% 1011.5 hPa 0 mm - 180 W/m² -
1788472749 32.78° C 59% 1011.7 hPa 0 mm - 187 W/m² -
1788472447 32.78° C 58% 1011.7 hPa 0 mm - 572 W/m² -
1788472144 32.22° C 60% 1011.7 hPa 0 mm - 594 W/m² -
1788471841 31.67° C 61% 1011.7 hPa 0 mm - 309 W/m² -
1788471540 32.22° C 60% 1011.8 hPa 0 mm - 264 W/m² -
1788471235 31.67° C 60% 1011.8 hPa 0 mm - 349 W/m² -
1788470931 32.22° C 59% 1011.9 hPa 0 mm - 346 W/m² -
1788470627 32.22° C 59% 1011.8 hPa 0 mm - 424 W/m² -
1788470326 31.67° C 61% 1011.8 hPa 0 mm - 530 W/m² -
1788470023 31.67° C 62% 1012.1 hPa 0 mm - 359 W/m² -
1788469719 31.67° C 62% 1012.1 hPa 0 mm - 332 W/m² -

* Rain latest hour (hover to see other rain measurements)
** Current wind speed in m/s (hover to see current wind gust speed)